This is the latest recevied weather packets stored in our database for station/object WC4PEM-11. If no packets are shown the sender has not sent any weather packets the latest 10 day(s).
| Time | Temp. | Humidity | Pressure | Rain* | Wind** | Luminosity | Snow |
|---|---|---|---|---|---|---|---|
| 1778032083 | 23.33° C | 67% | 1016.2 hPa | 0 mm | - | - | - |
| 1778031783 | 23.33° C | 66% | 1016.2 hPa | 0 mm | - | - | - |
| 1778031483 | 23.89° C | 66% | 1016.1 hPa | 0 mm | - | - | - |
| 1778031316 | 23.89° C | 66% | 1015.8 hPa | 0 mm | - | - | - |
| 1778031304 | 23.89° C | 65% | 1015.8 hPa | 0 mm | - | - | - |
| 1778031183 | 23.89° C | 66% | 1015.8 hPa | 0 mm | - | - | - |
| 1778030883 | 23.89° C | 65% | 1015.8 hPa | 0 mm | - | - | - |
| 1778030583 | 23.89° C | 64% | 1015.7 hPa | 0 mm | - | - | - |
| 1778030283 | 23.89° C | 64% | 1015.7 hPa | 0 mm | - | - | - |
| 1778029983 | 24.44° C | 64% | 1015.6 hPa | 0 mm | - | - | - |
| 1778029683 | 24.44° C | 64% | 1015.5 hPa | 0 mm | - | - | - |
| 1778029383 | 24.44° C | 64% | 1015.3 hPa | 0 mm | - | - | - |
| 1778029083 | 24.44° C | 63% | 1015.3 hPa | 0 mm | - | - | - |
| 1778028896 | 25° C | 63% | 1015.3 hPa | 0 mm | - | - | - |
| 1778028783 | 25° C | 63% | 1015.3 hPa | 0 mm | - | - | - |
| 1778028483 | 25° C | 63% | 1015.3 hPa | 0 mm | - | - | - |
| 1778028184 | 25° C | 63% | 1015.2 hPa | 0 mm | - | - | - |
| 1778027883 | 25° C | 62% | 1015.1 hPa | 0 mm | - | - | - |
| 1778027583 | 25.56° C | 62% | 1015.2 hPa | 0 mm | - | - | - |
| 1778027283 | 25.56° C | 61% | 1015 hPa | 0 mm | - | - | - |
| 1778026983 | 26.11° C | 61% | 1014.9 hPa | 0 mm | - | - | - |
| 1778026683 | 26.11° C | 60% | 1014.8 hPa | 0 mm | - | - | - |
| 1778026383 | 26.11° C | 59% | 1014.7 hPa | 0 mm | - | - | - |
| 1778026148 | 27.22° C | 57% | 1014.5 hPa | 0 mm | - | - | - |
| 1778026084 | 26.67° C | 58% | 1014.7 hPa | 0 mm | - | - | - |
* Rain latest hour (hover to see other rain measurements)
** Current wind speed in m/s (hover to see current wind gust speed)